Regional Weather Roundup
Issued by NWS

Home | Current Version | Previous Version | Graphics & Text | Print | Product List | Glossary Off
Versions: 1 2 3 4 5 6 7 8 9 10 11 12 13 14 15 16 17 18 19 20 21 22 23 24 25 26 27 28 29 30 31 32 33 34 35 36 37 38 39 40 41 42 43 44 45 46 47 48 49 50

919
ASUS43 KTOP 230208
RWRKS

WEATHER ROUNDUP FOR KANSAS
NATIONAL WEATHER SERVICE GOODLAND KS
900 PM CDT FRI SEP 22 2017

NOTE:  "FAIR" INDICATES FEW OR NO CLOUDS BELOW 12,000 FEET WITH NO
SIGNIFICANT WEATHER AND/OR OBSTRUCTIONS TO VISIBILITY.

KSZ001>006-013>018-027>032-041>047-230300-
NORTHWEST KANSAS

CITY           SKY/WX    TMP DP  RH WIND       PRES   REMARKS
GOODLAND       PTCLDY    81  55  40 S20       29.78R
HAYS           CLEAR     84  63  49 S20       29.82R
HILL CITY      MOCLDY    86  59  39 S17       29.80R
RUSSELL        CLEAR     83  63  50 S18       29.83R
$$

KSZ061>065-074>080-084>089-230300-
SOUTHWEST KANSAS

CITY           SKY/WX    TMP DP  RH WIND       PRES   REMARKS
DODGE CITY     MOCLDY    82  62  50 S21G32    29.86R
ELKHART          N/A    N/A N/A N/A MISG        N/A
GARDEN CITY    CLOUDY    81  60  48 S16G25    29.85R
GREAT BEND     CLEAR     82  64  54 S18       29.86R
LIBERAL        MOCLDY    81  63  54 S23       29.86R
PRATT          CLEAR     81  62  52 S13G21    29.89R
$$

KSZ066>073-081>083-090>101-230300-
SOUTHEAST KANSAS

CITY           SKY/WX    TMP DP  RH WIND       PRES   REMARKS
CHANUTE        CLEAR     76  68  76 SE7       29.94R
COFFEYVILLE    CLEAR     77  68  73 SE6       29.93R
HUTCHINSON     CLEAR     81  66  60 SE12      29.88R
MEDICINE LODGE   N/A     81  65  58 S9        29.88R
NEWTON         CLEAR     79  68  69 S14       29.91R
PARSONS        CLEAR     77  68  73 E3        29.95R
WICHITA INTL   CLEAR     81  69  67 S15       29.89R
WICHITA JABRA  CLEAR     80  69  69 S14G20    29.90R
WICHITA MCCONL CLEAR     80  67  63 S15       29.90R
WINFIELD       CLEAR     79  69  71 SE10      29.92R
$$

KSZ007>012-019>026-033>040-048>060-102>105-230300-
NORTHEAST KANSAS

CITY           SKY/WX    TMP DP  RH WIND       PRES   REMARKS
CONCORDIA      CLEAR     81  66  60 SE13      29.85R
EMPORIA        CLEAR     78  67  68 SE13      29.91R
LAWRENCE       CLEAR     77  71  82 SE9       29.92S
MANHATTAN      CLEAR     82  68  62 S9        29.87R
MARYSVILLE     CLEAR     81  68  65 SE10      29.87R
OLATHE IND     CLEAR     78  68  71 SE9       29.95S
OLATHE EXE     CLEAR     76  70  82 S8        29.95S
SALINA         CLEAR     86  66  51 SE13      29.85R
TOPEKA BILLARD CLEAR     80  70  71 SE10      29.90S
TOPEKA FORBES  CLEAR     80  69  69 SE10      29.91S
$$




USA.gov is the U.S. government's official web portal to all federal, state and local government web resources and services.